Location: Beuvrequen
(50.8014°N, 1.6652°E)
Time: 02:10:16
(UTC+00:00)

Cosmos 1656 - Pass Details

Date: 16 October 2021
Orbit: 799 x 848 km, 71.1° (Epoch: 28 November)

Event Time Altitude Azimuth Distance (km) Brightness Sun altitude
Rises 17:24:34 0° 201° (SSW) 3,342 7.3 -4.8°
Reaches altitude 10° 17:26:59 10° 200° (SSW) 2,406 6.5 -5.2°
Maximum altitude 17:32:29 74° 116° (ESE) 846 3.6 -6.1°
Drops below altitude 10° 17:37:56 10° 32° (NNE) 2,395 5.7 -6.9°
Sets 17:40:21 0° 31° (NNE) 3,325 6.4 -7.3°
